EW4927 Weather Reports


time (UTC)temp
F
wind
direction
speed
knots
gust
knots
rain 1hr
in
rain 24hr
in
rain mn
in
humidity
%
barometer
mb
20260507214541 43 0 0.0 0.0 0.00 0.00 0.00 93 1015.0
20260507213540 44 0 0.0 0.0 0.00 0.00 0.00 93 1014.9
20260507212540 44 0 0.0 0.0 0.00 0.00 0.00 92 1014.9
20260507211540 44 0 0.0 0.0 0.00 0.00 0.00 92 1014.9
20260507210538 44 0 0.0 0.0 0.00 0.00 0.00 92 1014.9
20260507205640 44 0 0.0 0.0 0.00 0.00 0.00 91 1014.8
20260507204637 44 0 0.0 0.0 0.00 0.00 0.00 91 1014.8
20260507203637 44 0 0.0 0.0 0.00 0.00 0.00 89 1014.7
20260507202636 45 0 0.0 0.0 0.00 0.00 0.00 88 1014.6
20260507201636 46 0 0.0 0.0 0.00 0.00 0.00 88 1014.4
20260507200636 47 0 0.0 0.0 0.00 0.00 0.00 87 1014.2
20260507195635 47 0 0.0 0.0 0.00 0.00 0.00 86 1014.2
20260507194634 48 0 0.0 0.0 0.00 0.00 0.00 84 1014.1
20260507193633 49 0 0.0 0.0 0.00 0.00 0.00 80 1014.1
20260507192632 50 0 0.0 0.0 0.00 0.00 0.00 78 1014.0
20260507191632 51 0 0.0 0.0 0.00 0.00 0.00 78 1014.0
20260507185631 52 0 0.0 0.0 0.00 0.00 0.00 75 1013.9
20260507184632 53 0 0.0 0.0 0.00 0.00 0.00 74 1013.9
20260507183630 53 0 0.0 0.0 0.00 0.00 0.00 65 1013.9
20260507182629 54 0 0.0 0.0 0.00 0.00 0.00 62 1013.8
20260507181627 54 0 0.0 0.0 0.00 0.00 0.00 61 1013.8
20260507180629 55 0 0.0 0.0 0.00 0.00 0.00 61 1013.8
20260507174626 56 0 0.0 0.0 0.00 0.00 0.00 59 1013.8
20260507173626 56 0 0.0 0.0 0.00 0.00 0.00 58 1013.8
20260507171625 58 0 0.0 0.0 0.00 0.00 0.00 59 1013.6
20260507170624 59 0 0.0 0.0 0.00 0.00 0.00 55 1013.6
20260507164622 60 0 0.0 0.0 0.00 0.00 0.00 54 1013.6
20260507163621 60 0 0.0 0.0 0.00 0.00 0.00 52 1013.5
20260507161620 60 0 0.0 0.0 0.00 0.00 0.00 53 1013.5
20260507160621 60 0 0.0 0.0 0.00 0.00 0.00 58 1013.5
20260507155622 58 0 0.0 0.0 0.00 0.00 0.00 59 1013.6
20260507154620 60 0 0.0 0.0 0.00 0.00 0.00 60 1013.5
20260507153621 60 0 0.0 0.0 0.00 0.00 0.00 58 1013.6
20260507152618 61 0 0.0 0.0 0.00 0.00 0.00 58 1013.8
20260507150617 60 0 0.0 0.0 0.00 0.00 0.00 63 1013.7
20260507145616 60 0 0.0 0.0 0.00 0.00 0.00 61 1013.7
20260507143617 60 0 0.0 0.0 0.00 0.00 0.00 63 1013.8
20260507142614 60 0 0.0 0.0 0.00 0.00 0.00 61 1013.9
20260507141614 60 0 0.0 0.0 0.00 0.00 0.00 64 1014.0
20260507140615 59 0 0.0 0.0 0.00 0.00 0.00 69 1014.1
20260507135614 57 0 0.0 0.0 0.00 0.00 0.00 73 1014.1
20260507133611 56 0 0.0 0.0 0.00 0.00 0.00 72 1014.4
20260507132612 56 0 0.0 0.0 0.00 0.00 0.00 71 1014.3
20260507131610 57 0 0.0 0.0 0.00 0.00 0.00 71 1014.2
20260507130611 56 0 0.0 0.0 0.00 0.00 0.00 72 1014.2
20260507125611 56 0 0.0 0.0 0.00 0.00 0.00 68 1014.3
20260507124608 58 0 0.0 0.0 0.00 0.00 0.00 63 1014.2
20260507123608 60 0 0.0 0.0 0.00 0.00 0.00 62 1014.0
20260507122607 60 0 0.0 0.0 0.00 0.00 0.00 62 1014.0
20260507115606 58 0 0.0 0.0 0.00 0.00 0.00 64 1014.0
20260507114605 59 0 0.0 0.0 0.00 0.00 0.00 63 1014.0
20260507113604 59 0 0.0 0.0 0.00 0.00 0.00 64 1014.0
20260507112604 58 0 0.0 0.0 0.00 0.00 0.00 67 1013.9
20260507111603 56 0 0.0 0.0 0.00 0.00 0.00 70 1013.9
20260507110608 56 0 0.0 0.0 0.00 0.00 0.00 67 1014.0
20260507105602 57 0 0.0 0.0 0.00 0.00 0.00 65 1014.1
20260507104603 58 0 0.0 0.0 0.00 0.00 0.00 66 1014.0
20260507103601 60 0 0.0 0.0 0.00 0.00 0.00 61 1014.1
20260507102602 61 0 0.0 0.0 0.00 0.00 0.00 60 1014.0
20260507101559 60 0 0.0 0.0 0.00 0.00 0.00 63 1014.1
20260507100559 59 0 0.0 0.0 0.00 0.00 0.00 66 1014.1
20260507095558 58 0 0.0 0.0 0.00 0.00 0.00 65 1014.1
20260507093557 58 0 0.0 0.0 0.00 0.00 0.00 67 1014.2
20260507092557 58 0 0.0 0.0 0.00 0.00 0.00 70 1014.2
20260507091558 56 0 0.0 0.0 0.00 0.00 0.00 70 1014.2
20260507090557 56 0 0.0 0.0 0.00 0.00 0.00 70 1014.2
20260507085556 57 0 0.0 0.0 0.00 0.00 0.00 69 1014.1
20260507084554 55 0 0.0 0.0 0.00 0.00 0.00 73 1014.2
20260507083555 54 0 0.0 0.0 0.00 0.00 0.00 75 1014.2
20260507082553 53 0 0.0 0.0 0.00 0.00 0.00 74 1014.3
20260507081552 53 0 0.0 0.0 0.00 0.00 0.00 77 1014.3
20260507080552 52 0 0.0 0.0 0.00 0.00 0.00 78 1014.3
20260507075552 51 0 0.0 0.0 0.00 0.00 0.00 77 1014.3
20260507074550 51 0 0.0 0.0 0.00 0.00 0.00 80 1014.2
20260507073551 50 0 0.0 0.0 0.00 0.00 0.00 80 1014.2
20260507071549 49 0 0.0 0.0 0.00 0.00 0.00 83 1014.2
20260507070548 48 0 0.0 0.0 0.00 0.00 0.00 85 1014.1
20260507064548 47 0 0.0 0.0 0.00 0.00 0.00 86 1014.0
20260507063548 47 0 0.0 0.0 0.00 0.00 0.00 86 1014.0
20260507062549 47 0 0.0 0.0 0.00 0.00 0.00 86 1013.9
20260507061547 46 0 0.0 0.0 0.00 0.00 0.00 86 1013.9
20260507060545 46 0 0.0 0.0 0.00 0.00 0.00 86 1013.8
20260507055544 46 0 0.0 0.0 0.00 0.00 0.00 85 1013.8
20260507054543 46 0 0.0 0.0 0.00 0.00 0.00 85 1013.9
20260507053543 46 0 0.0 0.0 0.00 0.00 0.00 84 1013.8
20260507052543 46 0 0.0 0.0 0.00 0.00 0.00 83 1013.8
20260507051543 46 0 0.0 0.0 0.00 0.00 0.00 83 1013.8
20260507050543 46 0 0.0 0.0 0.00 0.00 0.00 84 1013.8
20260507045540 46 0 0.0 0.0 0.00 0.00 0.00 85 1013.8
20260507044541 46 0 0.0 0.0 0.00 0.00 0.00 84 1013.7
20260507043542 46 0 0.0 0.0 0.00 0.00 0.00 84 1013.7
20260507041541 47 0 0.0 0.0 0.00 0.00 0.00 84 1013.7
20260507040539 46 0 0.0 0.0 0.00 0.00 0.00 85 1013.7